This demonstration page uses our WeatherBlox Daily Observations layout. Learn more.

Left ArrowRight Arrow

Hourly Observations for April 4, 2022

Temp ( °F °C ) Dew Point ( °F °C ) Humidity (%) Winds ( mph kmh ) Pressure ( in mb ) Visibility ( mi km ) Precip ( " mm )
1:53 am 01:53 undefined 61 16.1 32 0 34 34 WNW 8 13 29.93 1014 10 16 0.00 0.00
2:53 am 02:53 Cloudy 55 12.8 35 1.7 47 47 SE 5 7 29.94 1014 10 16 0.00 0.00
3:53 am 03:53 Cloudy 56 13.3 36 2.2 47 47 E 3 6 29.94 1014 10 16 0.00 0.00
4:53 am 04:53 Mostly Cloudy 55 12.8 36 2.2 49 49 Calm 29.93 1014 10 16 0.00 0.00
5:53 am 05:53 Cloudy 57 13.9 36 2.2 45 45 Calm 29.95 1014 10 16 0.00 0.00
6:53 am 06:53 Cloudy 57 13.9 38 3.3 49 49 S 6 9 29.96 1014 10 16 0.00 0.00
7:53 am 07:53 Cloudy 57 13.9 39 3.9 51 51 S 8 13 29.98 1015 10 16 0.00 0.00
8:53 am 08:53 Cloudy 59 15 39 3.9 48 48 SE 12 19 29.99 1016 10 16 0.00 0.00
9:53 am 09:53 Cloudy 59 15 39 3.9 48 48 SSE 14 22 30.01 1016 10 16 0.00 0.00
10:53 am 10:53 Cloudy 60 15.6 40 4.4 47 47 S 10 17 30.02 1017 10 16 0.00 0.00
11:53 am 11:53 Cloudy 63 17.2 40 4.4 43 43 SSW 13 20 30.01 1016 10 16 0.00 0.00
12:53 pm 12:53 Cloudy 62 16.7 40 4.4 44 44 S 12 19 30.01 1016 10 16 0.00 0.00
1:53 pm 13:53 Cloudy 66 18.9 41 5 40 40 S 16 26 29.99 1016 10 16 0.00 0.00
2:53 pm 14:53 Cloudy 68 20 43 6.1 40 40 SSE 16 26 29.98 1015 10 16 0.00 0.00
3:53 pm 15:53 Cloudy 72 22.2 43 6.1 35 35 SSE 17 28 29.95 1014 10 16 0.00 0.00
4:53 pm 16:53 Cloudy 72 22.2 42 5.6 34 34 SW 16 26 29.93 1014 10 16 0.00 0.00
5:53 pm 17:53 Cloudy 72 22.2 43 6.1 35 35 WSW 8 13 29.95 1014 10 16 0.00 0.00
6:53 pm 18:53 Cloudy 69 20.6 41 5 36 36 SW 6 9 29.97 1015 10 16 0.00 0.00
7:53 pm 19:53 Cloudy 65 18.3 43 6.1 45 45 W 9 15 29.99 1016 10 16 0.00 0.00
8:53 pm 20:53 Mostly Clear 63 17.2 41 5 45 45 W 8 13 30.03 1017 10 16 0.00 0.00
9:53 pm 21:53 Clear 61 16.1 39 3.9 44 44 VRB 3 6 30.04 1017 10 16 0.00 0.00
10:53 pm 22:53 Clear 59 15 30 -1.1 33 33 WSW 12 19 30.06 1018 10 16 0.00 0.00
11:53 pm 23:53 Clear 55 12.8 33 0.6 44 44 W 5 7 30.09 1019 10 16 0.00 0.00

Powered by AerisWeather